Change the Weather History Date:

Monday, October 7, 2013

  Actual Average Record
Temperature  
Mean Temperature 55 °F -  
Max Temperature 66 °F 54 °F 77 °F (2010)
Min Temperature 44 °F 30 °F 21 °F (2000)
Degree Days  
Heating Degree Days 10    
Growing Degree Days 5 (Base 50)    
Moisture  
Dew Point 29 °F    
Average Humidity 37    
Maximum Humidity 66    
Minimum Humidity 18    
Precipitation  
Precipitation 0.00 in 0.02 in - ()
Sea Level Pressure  
Sea Level Pressure 29.67 in    
Wind  
Wind Speed 17 mph ()    
Max Wind Speed 36 mph    
Max Gust Speed 43 mph    
Visibility 12.8 miles    
Events      
Averages and records for this station are not official NWS values.
T = Trace of Precipitation, MM = Missing Value Source: Averaged Metar Reports

Daily Weather History Graph

Daily Weather History Graph

Search for Another Location

Airport or City:

Trip Planner

Search our weather history database for the weather conditions in past years. The results will help you decide how hot, cold, wet, or windy it might be!

Date:

Astronomy

Oct. 07, 2013 Rise Set
Actual Time 7:40 AM MDT 6:56 PM MDT
Civil Twilight 7:08 AM MDT 7:28 PM MDT
Nautical Twilight 6:31 AM MDT 8:05 PM MDT
Astronomical Twilight 5:53 AM MDT 8:42 PM MDT
Moon 10:52 AM MDT (10/7) 8:25 PM MDT (10/7)
Length of Visible Light 12h 19m
Length of Day
11h 15m
Waxing Crescent, 9% of the Moon is Illuminated
Oct 7
Waxing Crescent
Oct 11
First Quarter
Oct 18
Full
Oct 26
Last Quarter
Nov 3
New

Hourly Weather History & Observations

Time (MDT) Temp. Windchill Dew Point Humidity Pressure Visibility Wind Dir Wind Speed Gust Speed Precip Events Conditions
5:50 AM 46.4 °F 40.1 °F 24.8 °F 43% 29.73 in 15.0 mi SW 15.0 mph - N/A   Partly Cloudy
6:00 AM 46.4 °F 39.8 °F 23.0 °F 40% 29.74 in 15.0 mi SSW 16.1 mph - N/A   Partly Cloudy
7:00 AM 44.6 °F 38.1 °F 24.8 °F 46% 29.75 in 15.0 mi SW 13.8 mph - N/A   Partly Cloudy
8:00 AM 50.0 °F - 24.8 °F 37% 29.70 in 40.0 mi SW 13.8 mph - N/A   Mostly Cloudy
9:00 AM 51.8 °F - 32.0 °F 47% 29.70 in 40.0 mi South 9.2 mph - N/A   Mostly Cloudy
10:00 AM 59.0 °F - 28.4 °F 31% 29.68 in 40.0 mi WSW 17.3 mph - N/A   Mostly Cloudy
11:00 AM 59.0 °F - 30.2 °F 34% 29.68 in 40.0 mi West 16.1 mph 27.6 mph N/A   Mostly Cloudy
12:00 PM 62 °F - 29 °F 18% 29.64 in 10 mi WNW 18.4 mph - -  
12:00 PM 62.6 °F - 28.4 °F 27% 29.68 in 40.0 mi WNW 17.3 mph - N/A   Mostly Cloudy
1:00 PM 66.2 °F - 24.8 °F 21% 29.60 in 9.0 mi West 27.6 mph 35.7 mph N/A   Clear
2:00 PM 66.2 °F - 26.6 °F 23% 29.64 in 40.0 mi West 27.6 mph 42.6 mph N/A   Scattered Clouds
3:00 PM 64.4 °F - 26.6 °F 24% 29.66 in 40.0 mi West 33.4 mph 41.4 mph N/A   Scattered Clouds
4:00 PM 64.4 °F - 28.4 °F 26% 29.65 in 40.0 mi West 27.6 mph 36.8 mph N/A   Scattered Clouds
5:00 PM 60.8 °F - 28.4 °F 29% 29.64 in 40.0 mi WSW 31.1 mph 40.3 mph N/A   Partly Cloudy
6:00 PM 58 °F - 31 °F 24% 29.67 in 10 mi West 24.2 mph - -  
6:00 PM 57.2 °F - 30.2 °F 36% 29.67 in 40.0 mi West 21.9 mph 32.2 mph N/A   Partly Cloudy
7:00 PM 51.8 °F - 32.0 °F 47% 29.68 in 40.0 mi West 18.4 mph - N/A   Partly Cloudy
8:00 PM 50.0 °F - 32.0 °F 50% 29.67 in 15.0 mi WSW 21.9 mph 29.9 mph N/A   Partly Cloudy
9:00 PM 50.0 °F - 33.8 °F 54% 29.63 in 15.0 mi SW 35.7 mph 42.6 mph N/A   Partly Cloudy
10:00 PM 48.2 °F - 33.8 °F 58% 29.63 in 15.0 mi SW 28.8 mph 35.7 mph N/A   Partly Cloudy
11:00 PM 44.6 °F 36.9 °F 33.8 °F 66% 29.64 in 9.0 mi WSW 18.4 mph 28.8 mph N/A   Clear